Weather in Cuernavaca

Mexico     18°56′09″N   99°14′50″W
temp.,
°C
wind,
m/s
gust,
m/s
humid.,
%
clouds,
%
prec.,
mm/h
press.,
hPa
HPBL,
m
29 november, mon
mon2900:00+13ne117231 0.3 102016
03:00+13n117351 0.1 101916
06:00+12nne12788 0.2 102060
09:00+15se11645 0.0 1021524
12:00+19s335019 0.0 10181448
15:00+19s325317 0.1 10151082
18:00+14sse12734 0.3 1017224
21:00+13n21752 0.1 102035
30 november, tue
tue3000:00+12n11730 0.1 102012
03:00+11nnw11760 0.0 101914
06:00+11nnw11780 0.0 102013
09:00+14s21650 0.0 1020431
12:00+18s435150 0.0 10171322
15:00+18ssw325745 0.1 1015984
18:00+14se12704 0.1 1017205
21:00+13n22745 0.0 101929
1 december, wed
wed100:00+12n226593 0.0 101920
03:00+12n216699 0.0 101918
06:00+11n22735 0.0 102017
09:00+15sse11615 0.0 1021465
12:00+19s33498 0.0 10181493
15:00+19s325245 0.4 10161239
18:00+14e117018 0.9 1018183
21:00+14n116966 0.3 102018
2 december, thu
thu200:00+13n2167100 0.3 102019
03:00+12n226926 0.0 101919
06:00+11n227111 0.0 102128
09:00+15se11596 0.0 1021437
12:00+19s334714 0.0 10191508
15:00+19s325015 0.3 10161232
18:00+14s01682 0.7 1018160
21:00+14n22710 0.1 102027
3 december, fri
fri300:00+13n22695 0.1 102021
03:00+12n22701 0.0 101926
06:00+11n22730 0.0 102031
09:00+15se01580 0.0 1020417
12:00+20s33440 0.0 10171450
15:00+19s324938 0.0 10141027
18:00+15sw116637 0.1 1016197
21:00+14n116911 0.0 101819